QPF
0.00 0.00 0.00 0.00 0.00 0.00 0.00 0.00 0.00 0.00 0.00 0.00 0.00 0.00 0.00 0.00 0.00 0.00 0.00 0.00 0.00 0.00 0.00 0.00 0.00 0.00 0.00 0.00 0.00 0.00 0.02 0.01 0.02 0.02 0.03 0.02 0.02 0.02 0.01 0.01 0.01 0.01 0.01 0.01 0.02 0.04 0.20 0.18 0.21 0.08 0.01 0.00 0.00 0.00 0.00 0.00 0.00 0.00 0.00 0.00 0.00 0.00 0.00
0.00 0.00 0.00 0.00 0.00 0.00 0.00 0.00 0.00 0.00 0.00 0.00 0.00 0.00 0.00 0.00 0.00 0.00 0.00 0.00 0.00 0.00 0.00 0.00 0.00 0.00 0.00 0.00 0.00 0.00 0.00 0.01 0.01 0.01 0.03 0.03 0.03 0.03 0.02 0.01 0.01 0.01 0.03 0.04 0.05 0.07 0.09 0.47 0.13 0.13 0.22 0.03 0.00 0.00 0.00 0.00 0.00 0.00 0.00 0.00 0.00 0.00 0.00
0.00 0.00 0.00 0.00 0.00 0.00 0.00 0.00 0.00 0.00 0.00 0.00 0.00 0.00 0.00 0.00 0.00 0.00 0.00 0.00 0.00 0.00 0.00 0.00 0.00 0.00 0.00 0.00 0.00 0.00 0.00 0.00 0.01 0.01 0.01 0.03 0.03 0.01 0.02 0.01 0.02 0.02 0.01 0.01 0.01 0.04 0.03 0.42 0.20 0.30 0.11 0.15 0.15 0.03 0.00 0.00 0.00 0.00 0.00 0.00 0.00 0.00 0.00
0.00 0.00 0.00 0.00 0.00 0.00 0.00 0.00 0.00 0.00 0.00 0.00 0.00 0.00 0.00 0.00 0.01 0.01 0.01 0.01 0.01 0.00 0.00 0.00 0.00 0.00 0.00 0.00 0.00 0.00 0.00 0.00 0.00 0.01 0.01 0.01 0.02 0.01 0.01 0.01 0.01 0.01 0.01 0.02 0.06 0.02 0.12 0.42 0.51 0.31 0.27 0.14 0.09 0.01 0.02 0.00 0.00 0.00 0.00 0.00 0.00 0.00 0.00
0.00 0.00 0.00 0.00 0.00 0.00 0.00 0.00 0.00 0.00 0.00 0.00 0.00 0.00 0.00 0.00 0.01 0.01 0.01 0.02 0.01 0.02 0.01 0.00 0.00 0.00 0.00 0.00 0.00 0.00 0.00 0.00 0.00 0.00 0.00 0.02 0.01 0.01 0.01 0.01 0.01 0.01 0.01 0.01 0.02 0.02 0.06 0.46 0.38 0.22 0.32 0.17 0.03 0.00 0.01 0.01 0.00 0.00 0.00 0.00 0.00 0.00 0.00
0.00 0.00 0.00 0.00 0.00 0.00 0.00 0.00 0.00 0.00 0.00 0.00 0.00 0.00 0.00 0.00 0.00 0.01 0.01 0.01 0.02 0.01 0.01 0.01 0.01 0.00 0.00 0.00 0.00 0.00 0.00 0.00 0.00 0.00 0.00 0.01 0.01 0.02 0.02 0.01 0.00 0.01 0.01 0.00 0.01 0.03 0.09 0.09 0.22 0.43 0.22 0.14 0.28 0.04 0.02 0.00 0.00 0.00 0.00 0.00 0.00 0.00 0.00
0.00 0.00 0.00 0.00 0.00 0.00 0.00 0.00 0.00 0.00 0.00 0.00 0.00 0.00 0.00 0.00 0.00 0.00 0.01 0.01 0.00 0.00 0.00 0.00 0.00 0.00 0.00 0.00 0.00 0.00 0.00 0.00 0.00 0.00 0.00 0.00 0.01 0.01 0.01 0.02 0.02 0.01 0.00 0.00 0.01 0.09 0.05 0.02 0.06 0.23 0.43 0.25 0.08 0.11 0.07 0.02 0.00 0.00 0.00 0.00 0.00 0.00 0.00
0.00 0.00 0.00 0.00 0.00 0.00 0.00 0.00 0.00 0.00 0.00 0.00 0.00 0.00 0.00 0.00 0.00 0.00 0.01 0.00 0.00 0.00 0.00 0.00 0.00 0.00 0.00 0.00 0.00 0.00 0.00 0.00 0.00 0.00 0.00 0.00 0.00 0.00 0.01 0.01 0.01 0.00 0.00 0.00 0.01 0.01 0.01 0.01 0.07 0.27 0.18 0.18 0.13 0.07 0.02 0.00 0.00 0.00 0.00 0.00 0.00 0.00 0.00
0.00 0.00 0.00 0.00 0.00 0.00 0.00 0.00 0.00 0.00 0.00 0.00 0.00 0.00 0.00 0.00 0.00 0.00 0.00 0.00 0.00 0.00 0.00 0.00 0.00 0.00 0.00 0.00 0.00 0.00 0.00 0.00 0.00 0.00 0.00 0.00 0.00 0.00 0.00 0.00 0.00 0.00 0.00 0.00 0.00 0.02 0.02 0.06 0.08 0.08 0.45 0.33 0.06 0.10 0.04 0.01 0.00 0.00 0.00 0.00 0.00 0.00 0.00
0.00 0.00 0.00 0.00 0.00 0.00 0.00 0.00 0.00 0.00 0.00 0.00 0.00 0.00 0.00 0.00 0.00 0.00 0.00 0.00 0.00 0.00 0.00 0.00 0.00 0.00 0.00 0.00 0.00 0.00 0.00 0.00 0.00 0.00 0.00 0.00 0.00 0.00 0.00 0.00 0.00 0.00 0.00 0.00 0.00 0.01 0.02 0.10 0.10 0.09 0.26 0.35 0.42 0.32 0.15 0.02 0.00 0.00 0.00 0.00 0.00 0.00 0.00
0.00 0.00 0.00 0.00 0.00 0.00 0.00 0.00 0.00 0.00 0.00 0.00 0.00 0.00 0.00 0.00 0.00 0.00 0.00 0.00 0.00 0.00 0.00 0.00 0.00 0.00 0.00 0.00 0.00 0.00 0.00 0.00 0.00 0.00 0.00 0.00 0.00 0.00 0.00 0.00 0.00 0.00 0.00 0.00 0.00 0.01 0.02 0.16 0.20 0.12 0.18 0.34 0.34 0.34 0.28 0.02 0.00 0.00 0.00 0.00 0.00 0.00 0.00
0.00 0.00 0.00 0.00 0.00 0.00 0.00 0.00 0.00 0.00 0.00 0.00 0.00 0.00 0.00 0.00 0.00 0.00 0.00 0.00 0.00 0.00 0.00 0.00 0.00 0.00 0.00 0.00 0.00 0.00 0.00 0.00 0.00 0.00 0.00 0.00 0.00 0.00 0.00 0.00 0.00 0.00 0.00 0.00 0.00 0.00 0.02 0.02 0.05 0.05 0.02 0.01 0.01 0.04 0.11 0.01 0.01 0.01 0.00 0.00 0.00 0.00 0.00
0.00 0.00 0.00 0.00 0.00 0.00 0.00 0.00 0.00 0.00 0.00 0.00 0.00 0.00 0.00 0.00 0.00 0.00 0.00 0.00 0.00 0.00 0.00 0.00 0.00 0.00 0.00 0.00 0.00 0.00 0.00 0.00 0.00 0.00 0.00 0.00 0.00 0.00 0.00 0.00 0.00 0.00 0.00 0.00 0.00 0.00 0.00 0.01 0.02 0.02 0.01 0.01 0.02 0.01 0.03 0.04 0.02 0.00 0.00 0.00 0.00 0.00 0.00
0.00 0.00 0.00 0.00 0.00 0.00 0.00 0.00 0.00 0.00 0.00 0.00 0.00 0.00 0.00 0.00 0.00 0.00 0.00 0.00 0.00 0.00 0.00 0.00 0.00 0.00 0.00 0.00 0.00 0.00 0.00 0.00 0.00 0.00 0.00 0.00 0.00 0.00 0.00 0.00 0.00 0.00 0.00 0.00 0.00 0.00 0.00 0.00 0.01 0.03 0.02 0.02 0.03 0.03 0.03 0.03 0.00 0.00 0.00 0.00 0.00 0.00 0.00
0.01 0.00 0.00 0.00 0.00 0.00 0.00 0.00 0.00 0.00 0.00 0.00 0.00 0.00 0.00 0.00 0.00 0.00 0.00 0.00 0.00 0.00 0.00 0.00 0.00 0.00 0.00 0.00 0.00 0.00 0.00 0.00 0.00 0.00 0.00 0.00 0.00 0.00 0.00 0.00 0.00 0.00 0.00 0.00 0.00 0.00 0.00 0.00 0.00 0.03 0.03 0.02 0.01 0.03 0.01 0.02 0.00 0.00 0.00 0.00 0.00 0.00 0.00
0.02 0.02 0.02 0.00 0.00 0.01 0.00 0.00 0.00 0.00 0.00 0.00 0.00 0.00 0.00 0.00 0.00 0.00 0.00 0.00 0.00 0.00 0.00 0.00 0.00 0.00 0.00 0.00 0.00 0.00 0.00 0.00 0.00 0.00 0.00 0.00 0.00 0.00 0.00 0.00 0.00 0.00 0.00 0.00 0.00 0.00 0.00 0.00 0.00 0.00 0.01 0.01 0.01 0.01 0.00 0.00 0.00 0.00 0.00 0.00 0.00 0.00 0.00
0.48 0.17 0.05 0.02 0.00 0.01 0.00 0.00 0.00 0.00 0.00 0.00 0.00 0.00 0.00 0.00 0.00 0.00 0.00 0.00 0.00 0.00 0.00 0.00 0.00 0.00 0.00 0.00 0.00 0.00 0.00 0.00 0.00 0.00 0.00 0.00 0.00 0.00 0.00 0.00 0.00 0.00 0.00 0.00 0.00 0.00 0.00 0.00 0.00 0.00 0.00 0.00 0.00 0.00 0.00 0.00 0.00 0.00 0.00 0.00 0.00 0.00 0.00
0.71 0.24 0.01 0.04 0.01 0.00 0.00 0.00 0.00 0.00 0.00 0.00 0.00 0.00 0.00 0.00 0.00 0.00 0.00 0.00 0.00 0.00 0.00 0.00 0.00 0.00 0.00 0.00 0.00 0.00 0.00 0.00 0.00 0.00 0.00 0.00 0.00 0.00 0.00 0.00 0.00 0.00 0.00 0.00 0.00 0.00 0.00 0.00 0.00 0.00 0.00 0.00 0.00 0.00 0.00 0.00 0.00 0.00 0.00 0.00 0.00 0.00 0.00
0.53 0.23 0.03 0.01 0.01 0.00 0.00 0.00 0.00 0.00 0.00 0.00 0.00 0.00 0.00 0.00 0.00 0.00 0.00 0.00 0.00 0.00 0.00 0.00 0.00 0.00 0.00 0.00 0.00 0.00 0.00 0.00 0.00 0.00 0.00 0.00 0.00 0.00 0.00 0.00 0.00 0.00 0.00 0.00 0.00 0.00 0.00 0.00 0.00 0.00 0.00 0.00 0.00 0.00 0.00 0.00 0.00 0.00 0.00 0.00 0.00 0.00 0.00
0.22 0.00 0.01 0.00 0.00 0.00 0.00 0.00 0.00 0.00 0.00 0.00 0.00 0.00 0.00 0.00 0.00 0.00 0.00 0.00 0.00 0.00 0.00 0.00 0.00 0.00 0.00 0.00 0.00 0.00 0.00 0.00 0.00 0.00 0.00 0.00 0.00 0.00 0.00 0.00 0.00 0.00 0.00 0.00 0.00 0.00 0.00 0.00 0.00 0.00 0.00 0.00 0.00 0.00 0.00 0.00 0.00 0.00 0.00 0.00 0.00 0.00 0.00
0.01 0.00 0.00 0.00 0.00 0.00 0.00 0.00 0.00 0.00 0.00 0.00 0.00 0.00 0.00 0.00 0.00 0.00 0.00 0.00 0.00 0.00 0.00 0.00 0.00 0.00 0.00 0.00 0.00 0.00 0.00 0.00 0.00 0.00 0.00 0.00 0.00 0.00 0.00 0.00 0.00 0.00 0.00 0.00 0.00 0.00 0.00 0.00 0.00 0.00 0.00 0.00 0.00 0.00 0.00 0.00 0.00 0.00 0.00 0.00 0.00 0.00 0.00
0.00 0.02 0.06 0.00 0.00 0.01 0.00 0.00 0.00 0.00 0.00 0.00 0.00 0.00 0.00 0.00 0.00 0.00 0.00 0.00 0.00 0.00 0.00 0.00 0.00 0.00 0.00 0.00 0.00 0.00 0.00 0.00 0.00 0.00 0.00 0.00 0.00 0.00 0.00 0.00 0.00 0.00 0.00 0.00 0.00 0.00 0.00 0.00 0.00 0.00 0.00 0.00 0.00 0.00 0.00 0.00 0.00 0.00 0.00 0.00 0.00 0.00 0.00
0.00 0.03 0.01 0.11 0.07 0.01 0.00 0.00 0.00 0.00 0.00 0.00 0.00 0.00 0.00 0.00 0.00 0.00 0.00 0.00 0.00 0.00 0.00 0.00 0.00 0.00 0.00 0.00 0.00 0.00 0.00 0.00 0.00 0.00 0.00 0.00 0.00 0.00 0.00 0.00 0.00 0.00 0.00 0.00 0.00 0.00 0.00 0.00 0.00 0.00 0.00 0.00 0.00 0.00 0.00 0.00 0.00 0.00 0.00 0.00 0.00 0.00 0.00
0.00 0.01 0.08 0.03 0.01 0.01 0.00 0.00 0.00 0.00 0.00 0.00 0.00 0.00 0.00 0.00 0.00 0.00 0.00 0.00 0.00 0.00 0.00 0.00 0.00 0.00 0.00 0.00 0.00 0.00 0.00 0.00 0.00 0.00 0.00 0.00 0.00 0.00 0.00 0.00 0.00 0.00 0.00 0.00 0.00 0.00 0.00 0.00 0.00 0.00 0.00 0.00 0.00 0.00 0.00 0.00 0.00 0.00 0.00 0.00 0.00 0.00 0.00
0.00 0.00 0.00 0.00 0.00 0.00 0.00 0.00 0.00 0.00 0.00 0.00 0.00 0.00 0.00 0.00 0.00 0.00 0.00 0.00 0.00 0.00 0.00 0.00 0.00 0.00 0.00 0.00 0.00 0.00 0.00 0.00 0.00 0.00 0.00 0.00 0.00 0.00 0.00 0.00 0.00 0.00 0.00 0.00 0.00 0.00 0.00 0.00 0.00 0.00 0.00 0.00 0.00 0.00 0.00 0.00 0.00 0.00 0.00 0.00 0.00 0.00 0.00
0.00 0.00 0.00 0.00 0.00 0.00 0.00 0.00 0.00 0.00 0.00 0.00 0.00 0.00 0.00 0.00 0.00 0.00 0.00 0.00 0.00 0.00 0.00 0.00 0.00 0.00 0.00 0.00 0.00 0.00 0.00 0.00 0.00 0.00 0.00 0.00 0.00 0.00 0.00 0.00 0.00 0.00 0.00 0.00 0.00 0.00 0.00 0.00 0.00 0.00 0.00 0.00 0.00 0.00 0.00 0.00 0.00 0.00 0.00 0.00 0.00 0.00 0.00
0.04 0.00 0.00 0.00 0.00 0.00 0.00 0.00 0.00 0.00 0.00 0.00 0.00 0.00 0.00 0.00 0.00 0.00 0.00 0.00 0.00 0.00 0.00 0.00 0.00 0.00 0.00 0.00 0.00 0.00 0.00 0.00 0.00 0.00 0.00 0.00 0.00 0.00 0.00 0.00 0.00 0.00 0.00 0.00 0.00 0.00 0.00 0.00 0.00 0.00 0.00 0.00 0.00 0.00 0.00 0.00 0.00 0.00 0.00 0.00 0.00 0.00 0.00
0.03 0.03 0.00 0.00 0.00 0.00 0.00 0.00 0.00 0.00 0.00 0.00 0.00 0.00 0.00 0.00 0.00 0.00 0.00 0.00 0.00 0.00 0.00 0.00 0.00 0.00 0.00 0.00 0.00 0.00 0.00 0.00 0.00 0.00 0.00 0.00 0.00 0.00 0.00 0.00 0.00 0.00 0.00 0.00 0.00 0.00 0.00 0.00 0.00 0.00 0.00 0.00 0.00 0.00 0.00 0.00 0.00 0.00 0.00 0.00 0.00 0.00 0.00
0.01 0.00 0.00 0.00 0.00 0.00 0.00 0.00 0.00 0.00 0.00 0.00 0.00 0.00 0.00 0.00 0.00 0.00 0.00 0.00 0.00 0.00 0.00 0.00 0.00 0.00 0.00 0.00 0.00 0.00 0.00 0.00 0.00 0.00 0.00 0.00 0.00 0.00 0.00 0.00 0.00 0.00 0.00 0.00 0.00 0.00 0.00 0.00 0.00 0.00 0.00 0.00 0.00 0.00 0.00 0.00 0.00 0.00 0.00 0.00 0.00 0.00 0.00
0.02 0.00 0.01 0.00 0.00 0.00 0.00 0.00 0.00 0.00 0.00 0.00 0.00 0.00 0.00 0.00 0.00 0.00 0.00 0.00 0.00 0.00 0.00 0.00 0.00 0.00 0.00 0.00 0.00 0.00 0.00 0.00 0.00 0.00 0.00 0.00 0.00 0.00 0.00 0.00 0.00 0.00 0.00 0.00 0.00 0.00 0.00 0.00 0.00 0.00 0.00 0.00 0.00 0.00 0.00 0.00 0.00 0.00 0.00 0.00 0.00 0.00 0.00
0.13 0.14 0.15 0.24 0.08 0.01 0.00 0.03 0.45 0.20 0.09 0.01 0.00 0.00 0.00 0.00 0.00 0.00 0.00 0.00 0.00 0.00 0.00 0.00 0.00 0.00 0.00 0.00 0.00 0.00 0.00 0.00 0.00 0.00 0.00 0.00 0.00 0.00 0.00 0.00 0.00 0.00 0.00 0.00 0.00 0.00 0.00 0.00 0.00 0.00 0.00 0.00 0.00 0.00 0.00 0.00 0.00 0.00 0.00 0.00 0.00 0.00 0.00
0.00 0.00 0.39 0.31 0.02 0.23 0.87 0.54 0.78 0.48 0.14 0.07 0.05 0.02 0.00 0.00 0.00 0.00 0.00 0.00 0.00 0.00 0.00 0.00 0.00 0.00 0.00 0.00 0.00 0.00 0.00 0.00 0.00 0.00 0.00 0.00 0.00 0.00 0.00 0.00 0.00 0.00 0.00 0.00 0.00 0.00 0.00 0.00 0.00 0.00 0.00 0.00 0.00 0.00 0.00 0.00 0.00 0.00 0.00 0.00 0.00 0.00 0.00
0.00 0.01 0.01 0.11 0.11 0.27 0.11 0.06 0.63 0.13 0.10 0.07 0.05 0.02 0.01 0.00 0.00 0.00 0.00 0.00 0.00 0.00 0.00 0.00 0.00 0.00 0.00 0.00 0.00 0.00 0.00 0.00 0.00 0.00 0.00 0.00 0.00 0.00 0.00 0.00 0.00 0.00 0.00 0.00 0.00 0.00 0.00 0.00 0.00 0.00 0.00 0.00 0.00 0.00 0.00 0.00 0.00 0.00 0.00 0.00 0.00 0.00 0.00
0.00 0.00 0.00 0.00 0.00 0.02 0.22 0.43 0.80 0.24 0.02 0.01 0.01 0.00 0.00 0.00 0.00 0.00 0.00 0.00 0.00 0.00 0.00 0.00 0.00 0.00 0.00 0.00 0.00 0.00 0.00 0.00 0.00 0.00 0.00 0.00 0.00 0.00 0.00 0.00 0.00 0.00 0.00 0.00 0.00 0.00 0.00 0.00 0.00 0.00 0.00 0.00 0.00 0.00 0.00 0.00 0.00 0.00 0.00 0.00 0.00 0.00 0.00
0.00 0.00 0.00 0.00 0.00 0.01 0.08 0.32 0.15 0.06 0.05 0.00 0.01 0.01 0.01 0.00 0.00 0.00 0.00 0.00 0.00 0.00 0.00 0.00 0.00 0.00 0.00 0.00 0.00 0.00 0.00 0.00 0.00 0.00 0.00 0.00 0.00 0.00 0.00 0.00 0.00 0.00 0.00 0.00 0.00 0.00 0.00 0.00 0.00 0.00 0.00 0.00 0.00 0.00 0.00 0.00 0.00 0.00 0.00 0.00 0.00 0.00 0.00
0.00 0.00 0.00 0.00 0.00 0.00 0.00 0.03 0.45 0.38 0.02 0.00 0.00 0.00 0.00 0.00 0.00 0.00 0.00 0.00 0.00 0.00 0.00 0.00 0.00 0.00 0.00 0.00 0.00 0.00 0.00 0.00 0.00 0.00 0.00 0.00 0.00 0.00 0.00 0.00 0.00 0.00 0.00 0.00 0.00 0.00 0.00 0.00 0.00 0.00 0.00 0.00 0.00 0.00 0.00 0.00 0.00 0.00 0.00 0.00 0.00 0.00 0.00
0.00 0.00 0.00 0.00 0.00 0.00 0.00 0.01 0.15 0.30 0.07 0.00 0.00 0.14 0.00 0.00 0.00 0.00 0.00 0.00 0.00 0.00 0.00 0.00 0.00 0.00 0.00 0.00 0.00 0.00 0.00 0.00 0.00 0.00 0.00 0.00 0.00 0.00 0.00 0.00 0.00 0.00 0.00 0.00 0.00 0.00 0.00 0.00 0.00 0.00 0.00 0.00 0.00 0.00 0.00 0.00 0.00 0.00 0.00 0.00 0.00 0.00 0.00
MSLP
1021.09 1021.37 1021.37 1021.33 1021.21 1021.13 1021.25 1021.25 1021.01 1020.97 1020.97 1020.97 1020.97 1020.85 1020.69 1020.73 1020.77 1020.73 1020.61 1020.69 1020.57 1020.53 1020.49 1020.57 1020.65 1020.53 1020.33 1020.25 1020.17 1020.01 1019.97 1019.89 1019.93 1020.01 1019.97 1019.61 1019.97 1019.81 1019.29 1019.29 1019.17 1019.01 1019.05 1019.21 1019.25 1019.57 1020.77 1021.97 1022.57 1022.05 1021.61 1021.53 1021.37 1021.25 1021.13 1020.97 1021.01 1021.21 1021.45 1021.53 1021.57 1021.73 1021.73
1020.93 1021.05 1020.97 1021.01 1021.17 1021.17 1021.33 1021.25 1021.17 1021.05 1021.09 1021.13 1021.01 1021.01 1020.93 1020.81 1020.85 1020.81 1020.73 1020.73 1020.81 1020.69 1020.45 1020.49 1020.53 1020.53 1020.57 1020.57 1020.45 1020.33 1020.29 1020.17 1020.01 1019.97 1019.97 1019.93 1019.97 1020.09 1019.53 1019.57 1019.33 1019.33 1019.25 1019.37 1019.33 1019.37 1019.81 1021.37 1022.21 1022.17 1022.17 1021.69 1021.49 1021.61 1021.57 1021.37 1021.29 1021.33 1021.41 1021.53 1021.53 1021.49 1021.57
1020.93 1020.97 1020.85 1021.21 1021.25 1021.25 1021.33 1021.45 1021.37 1021.33 1021.17 1021.13 1021.13 1021.09 1021.05 1020.81 1020.93 1020.81 1020.73 1020.89 1020.85 1020.81 1020.69 1020.69 1020.65 1020.57 1020.57 1020.57 1020.57 1020.53 1020.45 1020.29 1020.17 1020.05 1020.05 1019.97 1019.97 1019.77 1019.69 1019.61 1019.69 1019.73 1019.57 1019.37 1019.37 1019.53 1019.45 1020.53 1021.65 1022.37 1022.09 1022.05 1022.41 1022.33 1021.93 1021.89 1021.69 1021.61 1021.61 1021.73 1021.73 1021.73 1021.73
1021.09 1021.13 1021.21 1021.33 1021.21 1021.33 1021.33 1021.41 1021.45 1021.41 1021.33 1021.33 1021.25 1021.17 1021.17 1021.01 1021.05 1020.97 1021.01 1020.93 1020.93 1020.93 1020.85 1020.73 1020.69 1020.69 1020.65 1020.57 1020.49 1020.53 1020.49 1020.53 1020.37 1020.21 1020.13 1019.97 1019.85 1019.89 1019.77 1019.69 1019.81 1019.89 1020.01 1019.89 1020.21 1019.57 1019.57 1020.89 1021.45 1022.09 1021.97 1021.77 1022.17 1022.69 1022.53 1022.05 1021.93 1021.97 1021.97 1022.05 1022.13 1022.13 1022.13
1020.93 1021.05 1021.21 1021.33 1021.17 1021.25 1021.25 1021.33 1021.37 1021.37 1021.37 1021.29 1021.33 1021.21 1021.33 1021.25 1021.25 1021.17 1021.13 1021.13 1021.13 1021.13 1021.09 1020.85 1020.93 1020.85 1020.73 1020.65 1020.53 1020.61 1020.65 1020.53 1020.45 1020.33 1020.25 1020.29 1020.13 1020.01 1020.01 1019.89 1019.77 1019.65 1019.65 1019.65 1019.41 1019.53 1020.25 1021.09 1020.81 1021.57 1022.05 1022.01 1022.05 1022.21 1022.45 1022.25 1022.09 1022.09 1022.17 1022.25 1022.29 1022.37 1022.37
1020.77 1020.81 1020.93 1021.05 1021.01 1021.09 1021.05 1021.25 1021.25 1021.21 1021.25 1021.33 1021.41 1021.37 1021.37 1021.49 1021.33 1021.37 1021.33 1021.29 1021.33 1021.29 1021.29 1021.13 1021.09 1021.09 1020.97 1020.85 1020.81 1020.85 1020.81 1020.77 1020.65 1020.57 1020.41 1020.53 1020.41 1020.25 1020.13 1019.89 1019.81 1019.69 1019.69 1019.53 1019.65 1019.69 1020.01 1020.77 1020.57 1021.53 1021.85 1021.69 1022.09 1022.57 1022.69 1022.53 1022.49 1022.17 1022.05 1022.25 1022.21 1022.29 1022.45
1020.73 1020.77 1020.81 1020.81 1020.93 1020.89 1020.93 1021.13 1021.17 1021.25 1021.37 1021.45 1021.41 1021.49 1021.41 1021.29 1021.33 1021.37 1021.41 1021.33 1021.25 1021.13 1021.21 1021.25 1021.21 1021.21 1021.13 1020.97 1020.85 1020.97 1021.01 1020.89 1020.81 1020.53 1020.45 1020.53 1020.49 1020.37 1020.13 1020.13 1020.01 1019.89 1019.81 1019.69 1019.73 1019.65 1019.85 1020.45 1021.21 1021.41 1021.97 1021.97 1022.13 1022.57 1022.81 1022.53 1022.21 1022.33 1022.61 1022.45 1022.45 1022.53 1022.65
1020.57 1020.65 1020.69 1020.65 1020.81 1020.93 1020.89 1021.01 1021.13 1021.21 1021.29 1021.33 1021.37 1021.41 1021.45 1021.37 1021.41 1021.37 1021.33 1021.29 1021.33 1021.29 1021.25 1021.29 1021.21 1021.13 1021.17 1021.05 1020.93 1021.09 1021.09 1020.97 1020.85 1020.65 1020.77 1020.77 1020.61 1020.61 1020.45 1020.29 1020.09 1019.97 1019.89 1019.77 1019.77 1019.85 1019.73 1019.89 1020.25 1021.61 1021.33 1022.49 1022.93 1022.77 1022.73 1022.41 1022.37 1022.69 1022.97 1022.73 1022.57 1022.81 1023.01
1020.45 1020.53 1020.61 1020.65 1020.73 1020.81 1020.89 1020.93 1021.13 1021.25 1021.25 1021.33 1021.37 1021.41 1021.49 1021.33 1021.45 1021.41 1021.33 1021.37 1021.33 1021.33 1021.29 1021.29 1021.25 1021.13 1021.21 1021.21 1021.09 1021.17 1021.21 1021.09 1020.93 1020.97 1020.65 1020.65 1020.81 1020.69 1020.49 1020.29 1020.13 1020.13 1020.01 1019.93 1019.81 1019.81 1019.65 1019.89 1020.05 1020.73 1021.53 1021.53 1022.21 1023.09 1023.01 1023.05 1022.89 1023.29 1023.09 1023.17 1023.09 1022.97 1023.09
1020.61 1020.69 1020.69 1020.77 1020.81 1020.85 1020.89 1020.97 1021.09 1021.13 1021.29 1021.37 1021.41 1021.45 1021.53 1021.41 1021.41 1021.37 1021.37 1021.37 1021.41 1021.33 1021.33 1021.29 1021.29 1021.29 1021.37 1021.37 1021.37 1021.37 1021.33 1021.17 1021.05 1021.09 1020.97 1020.85 1020.81 1020.61 1020.45 1020.45 1020.29 1020.25 1020.21 1020.05 1019.97 1019.93 1019.97 1020.13 1020.33 1020.45 1020.93 1021.65 1021.61 1022.21 1022.97 1023.09 1023.37 1023.45 1023.53 1023.29 1023.41 1023.33 1023.21
1020.53 1020.57 1020.61 1020.73 1020.77 1020.93 1021.01 1021.05 1021.13 1021.33 1021.37 1021.37 1021.41 1021.45 1021.49 1021.49 1021.49 1021.53 1021.37 1021.41 1021.41 1021.41 1021.41 1021.33 1021.37 1021.49 1021.45 1021.41 1021.45 1021.37 1021.37 1021.21 1021.13 1021.13 1021.13 1021.05 1021.01 1020.73 1020.69 1020.57 1020.45 1020.37 1020.37 1020.17 1020.13 1020.21 1020.09 1020.53 1020.61 1020.73 1021.13 1021.45 1021.49 1021.73 1022.21 1022.65 1023.33 1023.37 1023.57 1023.53 1023.41 1023.61 1023.65
1020.49 1020.53 1020.53 1020.65 1020.81 1020.97 1021.09 1021.13 1021.21 1021.25 1021.29 1021.33 1021.33 1021.41 1021.53 1021.45 1021.49 1021.49 1021.41 1021.41 1021.37 1021.41 1021.41 1021.49 1021.49 1021.41 1021.49 1021.45 1021.41 1021.37 1021.37 1021.25 1021.17 1021.21 1021.21 1021.17 1021.09 1020.89 1020.85 1020.81 1020.57 1020.53 1020.45 1020.37 1020.21 1020.13 1020.25 1020.13 1020.45 1020.53 1020.57 1020.29 1020.61 1020.77 1021.65 1021.93 1022.93 1023.45 1023.17 1023.49 1023.57 1023.61 1023.73
1020.33 1020.49 1020.65 1020.85 1020.97 1021.01 1020.97 1021.05 1021.17 1021.29 1021.37 1021.25 1021.29 1021.41 1021.41 1021.41 1021.41 1021.45 1021.37 1021.37 1021.37 1021.41 1021.45 1021.49 1021.45 1021.49 1021.45 1021.57 1021.45 1021.41 1021.45 1021.29 1021.25 1021.25 1021.21 1021.21 1021.13 1020.97 1020.85 1020.81 1020.81 1020.69 1020.57 1020.29 1020.21 1020.25 1020.09 1020.21 1020.21 1020.37 1020.49 1020.61 1020.65 1020.85 1021.01 1021.65 1022.13 1023.29 1023.13 1023.41 1023.61 1023.65 1023.65
1020.41 1020.49 1020.65 1020.81 1021.01 1021.01 1021.05 1021.09 1021.09 1021.17 1021.21 1021.33 1021.25 1021.37 1021.37 1021.33 1021.25 1021.33 1021.33 1021.37 1021.37 1021.41 1021.45 1021.53 1021.53 1021.49 1021.53 1021.61 1021.65 1021.61 1021.49 1021.33 1021.29 1021.25 1021.21 1021.29 1021.21 1021.09 1020.97 1020.85 1020.81 1020.77 1020.65 1020.53 1020.41 1020.17 1020.09 1019.97 1020.25 1020.25 1020.21 1020.45 1020.69 1020.73 1020.85 1021.33 1022.05 1022.89 1023.29 1023.33 1023.41 1023.49 1023.81
1020.37 1020.41 1020.61 1020.69 1020.85 1020.89 1021.01 1021.05 1021.05 1021.13 1021.25 1021.21 1021.21 1021.29 1021.25 1021.29 1021.21 1021.25 1021.25 1021.25 1021.41 1021.37 1021.41 1021.49 1021.53 1021.53 1021.57 1021.73 1021.81 1021.77 1021.69 1021.53 1021.41 1021.41 1021.33 1021.37 1021.37 1021.29 1021.17 1021.01 1020.93 1020.97 1020.85 1020.73 1020.61 1020.37 1020.17 1020.05 1019.89 1020.25 1020.33 1020.41 1020.53 1020.69 1020.69 1021.13 1021.69 1022.41 1023.25 1023.25 1023.25 1023.61 1023.81
1020.21 1020.33 1020.45 1020.57 1020.65 1020.69 1020.89 1020.89 1020.77 1021.09 1021.13 1021.09 1021.09 1021.13 1021.13 1021.29 1021.17 1021.05 1021.17 1021.33 1021.29 1021.41 1021.41 1021.53 1021.65 1021.65 1021.73 1021.73 1021.69 1021.77 1021.77 1021.65 1021.61 1021.53 1021.41 1021.37 1021.29 1021.25 1021.21 1021.21 1021.17 1021.09 1020.93 1020.81 1020.69 1020.57 1020.49 1020.29 1020.05 1020.01 1020.33 1020.37 1020.61 1020.77 1020.77 1020.89 1021.33 1022.09 1022.81 1023.09 1023.25 1023.49 1023.57
1019.73 1019.97 1020.29 1020.37 1020.57 1020.61 1020.81 1020.57 1020.57 1020.85 1020.89 1020.89 1020.97 1021.01 1021.05 1021.13 1021.17 1021.21 1021.21 1021.25 1021.29 1021.45 1021.45 1021.61 1021.65 1021.69 1021.77 1021.77 1021.77 1021.69 1021.69 1021.73 1021.65 1021.61 1021.49 1021.41 1021.37 1021.29 1021.29 1021.29 1021.29 1021.17 1021.01 1020.93 1020.81 1020.69 1020.57 1020.49 1020.33 1020.29 1020.49 1020.61 1020.77 1020.85 1020.93 1021.05 1021.21 1021.73 1022.09 1022.69 1023.17 1022.97 1023.53
1019.89 1020.13 1020.01 1020.13 1020.41 1020.61 1020.65 1020.45 1020.45 1020.65 1020.73 1020.81 1020.81 1020.93 1021.01 1021.01 1021.09 1021.05 1021.17 1021.13 1021.17 1021.29 1021.37 1021.45 1021.57 1021.73 1021.85 1021.89 1021.85 1021.85 1021.81 1021.81 1021.77 1021.73 1021.69 1021.69 1021.65 1021.45 1021.45 1021.45 1021.33 1021.21 1021.09 1021.01 1020.93 1020.81 1020.85 1020.73 1020.37 1020.41 1020.57 1020.57 1020.81 1021.01 1021.05 1021.05 1021.33 1021.61 1022.17 1022.53 1022.77 1022.77 1023.21
1019.41 1019.65 1019.89 1020.05 1020.25 1020.41 1020.45 1020.37 1020.37 1020.49 1020.49 1020.65 1020.69 1020.77 1020.85 1020.93 1020.93 1020.93 1020.93 1020.85 1020.89 1021.09 1021.21 1021.37 1021.49 1021.57 1021.73 1021.89 1021.93 1021.97 1021.93 1021.89 1021.81 1021.73 1021.77 1021.65 1021.61 1021.61 1021.65 1021.53 1021.49 1021.37 1021.29 1021.25 1021.25 1021.21 1021.13 1021.01 1020.77 1020.73 1020.73 1020.65 1020.73 1021.01 1021.17 1021.33 1021.57 1021.89 1022.13 1022.45 1022.73 1023.13 1023.21
1018.97 1019.25 1019.61 1019.77 1020.01 1020.17 1020.21 1020.13 1020.17 1020.29 1020.33 1020.45 1020.57 1020.69 1020.69 1020.81 1020.81 1020.69 1020.61 1020.69 1020.81 1021.01 1021.17 1021.33 1021.49 1021.65 1021.65 1021.73 1021.85 1021.93 1021.97 1021.97 1021.93 1021.93 1021.81 1021.73 1021.69 1021.73 1021.65 1021.65 1021.65 1021.61 1021.53 1021.45 1021.45 1021.41 1021.33 1021.29 1021.25 1021.29 1021.29 1021.21 1021.21 1021.41 1021.57 1021.57 1021.69 1022.01 1022.21 1022.61 1022.81 1023.01 1023.29
1018.61 1018.77 1019.05 1019.49 1019.81 1019.93 1019.89 1019.89 1019.97 1020.01 1020.13 1020.29 1020.37 1020.41 1020.49 1020.61 1020.69 1020.69 1020.57 1020.73 1020.77 1020.93 1021.21 1021.33 1021.41 1021.49 1021.57 1021.77 1021.89 1021.93 1021.93 1021.89 1021.89 1021.93 1021.93 1021.85 1021.85 1021.81 1021.81 1021.81 1021.77 1021.81 1021.85 1021.85 1021.85 1021.69 1021.53 1021.45 1021.45 1021.49 1021.45 1021.49 1021.53 1021.61 1021.69 1021.85 1022.01 1022.09 1022.33 1022.49 1022.65 1022.93 1023.05
1018.29 1018.41 1018.85 1019.25 1019.53 1019.57 1019.57 1019.65 1019.77 1019.81 1020.01 1020.13 1020.21 1020.21 1020.25 1020.41 1020.61 1020.65 1020.61 1020.77 1020.81 1021.01 1021.13 1021.29 1021.37 1021.53 1021.65 1021.85 1021.85 1021.93 1021.85 1021.85 1021.89 1021.89 1021.89 1021.97 1021.97 1021.89 1021.89 1022.09 1022.29 1022.53 1022.93 1023.13 1023.09 1022.93 1022.85 1022.73 1021.97 1021.69 1021.81 1021.73 1021.81 1021.81 1021.89 1021.93 1021.97 1022.05 1022.25 1022.41 1022.69 1022.81 1023.05
1017.93 1018.25 1018.69 1018.85 1018.93 1019.01 1019.17 1019.37 1019.57 1019.69 1019.85 1019.93 1020.05 1020.13 1020.21 1020.29 1020.45 1020.57 1020.61 1020.69 1020.77 1020.97 1021.13 1021.17 1021.65 1021.93 1021.93 1021.73 1021.81 1021.85 1021.93 1021.89 1021.85 1021.89 1021.97 1022.09 1022.09 1022.05 1022.13 1022.49 1023.09 1023.41 1023.41 1023.45 1023.45 1023.41 1023.29 1023.13 1023.01 1022.61 1022.33 1022.09 1022.01 1022.05 1022.13 1022.09 1022.13 1022.13 1022.25 1022.45 1022.61 1022.81 1023.05
1017.61 1017.85 1018.21 1018.53 1018.77 1018.85 1018.81 1018.97 1019.29 1019.41 1019.53 1019.69 1019.85 1020.01 1020.17 1020.33 1020.37 1020.37 1020.45 1020.57 1020.77 1020.97 1021.05 1021.29 1021.93 1022.13 1022.25 1022.25 1021.97 1021.93 1021.89 1021.97 1021.93 1021.97 1022.01 1022.01 1022.09 1022.17 1022.25 1022.41 1022.73 1023.13 1023.21 1023.37 1023.65 1023.77 1023.69 1023.65 1023.53 1023.41 1023.45 1023.49 1023.41 1022.97 1022.41 1022.37 1022.37 1022.37 1022.33 1022.41 1022.57 1022.77 1022.85
1017.29 1017.37 1017.81 1018.09 1018.25 1018.41 1018.53 1018.69 1018.97 1019.09 1019.21 1019.45 1019.65 1019.81 1020.09 1020.13 1020.21 1020.29 1020.33 1020.41 1020.65 1020.85 1020.93 1021.53 1021.97 1022.21 1022.41 1022.45 1022.29 1021.97 1021.93 1021.97 1022.01 1021.97 1021.97 1022.01 1022.01 1022.13 1022.33 1022.41 1022.49 1022.53 1022.69 1022.89 1023.05 1023.45 1023.85 1023.93 1023.85 1023.81 1023.77 1023.77 1023.77 1023.89 1023.93 1023.53 1022.89 1022.69 1022.69 1022.57 1022.81 1022.77 1022.81
1017.25 1017.25 1017.37 1017.53 1017.69 1017.89 1018.09 1018.33 1018.57 1018.77 1018.93 1019.05 1019.33 1019.65 1019.77 1019.85 1020.05 1020.09 1020.25 1020.33 1020.45 1020.61 1020.85 1021.73 1021.97 1022.29 1022.45 1022.57 1022.53 1022.17 1021.81 1021.97 1022.01 1022.01 1022.05 1022.05 1022.09 1022.17 1022.21 1022.41 1022.57 1022.57 1022.93 1023.37 1022.93 1022.97 1023.37 1023.81 1024.05 1023.97 1023.93 1023.97 1024.09 1024.13 1024.05 1024.05 1024.05 1023.69 1022.93 1022.89 1022.93 1023.01 1022.93
1017.45 1017.17 1017.05 1017.13 1017.33 1017.57 1017.77 1017.97 1018.13 1018.29 1018.53 1018.81 1019.09 1019.33 1019.41 1019.65 1019.77 1019.89 1020.05 1020.13 1020.21 1020.37 1020.65 1021.69 1022.01 1022.25 1022.41 1022.57 1022.49 1022.33 1021.85 1022.05 1022.01 1022.09 1022.21 1022.25 1022.29 1022.37 1022.37 1022.33 1022.49 1022.69 1022.85 1022.89 1022.85 1022.97 1023.09 1023.21 1023.41 1023.49 1023.49 1023.49 1023.77 1024.17 1024.21 1024.21 1024.13 1024.05 1023.77 1023.25 1023.13 1023.17 1023.37
1017.01 1017.05 1016.85 1016.89 1017.01 1017.21 1017.37 1017.61 1017.85 1018.01 1018.25 1018.53 1018.85 1019.01 1019.17 1019.41 1019.57 1019.65 1019.77 1019.85 1019.89 1020.13 1020.41 1021.45 1021.93 1022.21 1022.33 1022.45 1022.45 1022.41 1021.89 1022.09 1022.09 1022.21 1022.33 1022.45 1022.49 1022.57 1022.57 1022.57 1022.57 1022.69 1022.85 1022.85 1023.09 1023.25 1023.05 1023.13 1023.29 1023.41 1023.49 1023.65 1023.73 1023.85 1024.13 1024.21 1024.17 1023.89 1023.73 1023.65 1023.57 1023.57 1023.81
1016.53 1016.49 1016.53 1016.61 1016.85 1017.01 1017.01 1017.13 1017.41 1017.57 1017.85 1018.09 1018.33 1018.57 1018.77 1018.93 1019.21 1019.45 1019.49 1019.61 1019.73 1019.85 1020.37 1021.21 1021.69 1022.05 1022.29 1022.37 1022.45 1022.09 1021.81 1022.01 1022.05 1022.13 1022.33 1022.49 1022.57 1022.61 1022.65 1022.69 1022.69 1022.81 1022.97 1023.17 1023.77 1023.85 1023.53 1023.21 1023.29 1023.41 1023.61 1023.81 1024.01 1024.33 1024.85 1025.49 1025.49 1025.17 1024.81 1024.57 1024.49 1024.45 1024.49
1016.65 1016.53 1016.45 1016.65 1016.85 1016.93 1016.93 1017.01 1017.09 1017.13 1017.45 1017.61 1017.89 1018.17 1018.33 1018.53 1018.65 1018.89 1019.13 1019.29 1019.49 1019.61 1020.09 1021.09 1021.49 1021.89 1022.21 1022.37 1022.37 1021.57 1021.61 1021.65 1021.85 1022.09 1022.25 1022.41 1022.53 1022.69 1022.73 1022.73 1022.73 1022.81 1023.01 1023.41 1024.05 1024.13 1023.85 1023.61 1023.21 1023.45 1023.57 1023.77 1023.93 1024.13 1024.53 1025.09 1025.45 1025.49 1025.45 1025.41 1025.45 1025.41 1025.41
1016.65 1017.01 1017.37 1017.13 1017.05 1016.93 1016.85 1016.89 1017.09 1017.41 1017.81 1017.69 1017.69 1017.77 1017.89 1018.13 1018.33 1018.45 1018.73 1018.93 1019.05 1019.33 1019.53 1020.73 1021.29 1021.73 1022.01 1022.33 1022.01 1021.33 1021.29 1021.29 1021.61 1021.89 1022.13 1022.29 1022.33 1022.57 1022.89 1023.29 1023.09 1022.93 1023.13 1023.61 1024.29 1024.33 1024.09 1023.81 1023.25 1023.45 1023.57 1023.69 1023.93 1024.09 1024.49 1024.65 1024.81 1025.37 1025.69 1025.65 1025.65 1025.65 1025.65
1015.85 1016.29 1017.25 1016.89 1016.37 1016.65 1017.09 1017.69 1018.29 1018.37 1018.09 1017.85 1017.69 1017.61 1017.69 1017.89 1018.13 1018.25 1018.41 1018.65 1018.85 1019.17 1019.21 1020.33 1021.09 1021.41 1021.85 1021.97 1021.89 1021.17 1020.93 1020.89 1021.37 1021.57 1021.81 1022.09 1022.17 1022.37 1022.97 1023.33 1023.65 1023.53 1023.29 1023.93 1024.37 1024.41 1024.33 1024.05 1023.29 1023.45 1023.41 1023.49 1023.65 1023.93 1024.17 1024.29 1024.49 1024.65 1024.85 1024.97 1025.17 1025.33 1025.53
1015.69 1016.05 1016.53 1016.65 1016.73 1016.81 1017.09 1017.77 1018.09 1018.53 1018.49 1018.01 1017.73 1017.57 1017.61 1017.69 1017.93 1018.09 1018.21 1018.41 1018.69 1018.93 1018.97 1019.69 1020.89 1021.21 1021.53 1021.73 1021.73 1021.01 1020.61 1020.65 1020.97 1021.29 1021.41 1021.61 1021.93 1022.13 1022.53 1022.97 1023.61 1023.97 1024.05 1024.25 1024.45 1024.49 1024.45 1024.45 1023.73 1023.41 1023.37 1023.33 1023.61 1024.09 1024.13 1024.25 1024.37 1024.33 1024.57 1024.57 1024.73 1024.81 1024.85
1015.93 1015.81 1015.89 1016.01 1016.09 1016.57 1017.29 1017.25 1017.17 1017.33 1017.61 1017.65 1017.37 1017.21 1017.41 1017.57 1017.69 1017.77 1017.81 1017.97 1018.17 1018.45 1018.57 1018.97 1020.29 1021.01 1021.33 1021.53 1021.49 1021.29 1020.49 1020.45 1020.49 1020.81 1021.01 1021.33 1021.41 1021.73 1022.09 1022.33 1022.73 1023.89 1024.25 1024.41 1024.53 1024.61 1024.61 1024.45 1024.25 1023.65 1023.45 1023.49 1023.85 1024.09 1024.25 1024.41 1024.93 1024.81 1024.57 1024.73 1024.81 1024.81 1024.81
1016.01 1015.93 1015.81 1015.77 1015.97 1016.09 1016.69 1016.97 1017.09 1017.25 1017.09 1017.05 1017.13 1017.21 1017.33 1017.49 1017.45 1017.37 1017.37 1017.57 1017.69 1017.97 1018.25 1018.61 1019.37 1020.73 1021.05 1021.37 1021.41 1021.41 1020.73 1020.25 1020.25 1020.37 1020.77 1020.89 1020.97 1021.21 1021.53 1021.77 1022.29 1023.57 1024.09 1024.41 1024.57 1024.73 1024.73 1024.69 1024.53 1024.01 1024.41 1024.73 1024.77 1024.73 1024.41 1024.29 1024.41 1024.25 1024.21 1024.13 1024.13 1024.29 1024.41
1016.17 1015.85 1015.77 1015.73 1015.81 1016.01 1016.09 1016.65 1017.09 1016.77 1016.61 1016.69 1016.85 1017.01 1017.05 1017.17 1017.21 1017.13 1017.09 1017.17 1017.29 1017.53 1017.77 1018.29 1018.89 1019.97 1020.85 1021.13 1021.37 1021.37 1021.13 1020.65 1020.53 1020.37 1020.41 1020.61 1020.73 1020.85 1021.13 1021.45 1022.17 1023.29 1023.85 1024.21 1024.57 1024.77 1024.85 1024.97 1024.73 1024.73 1025.05 1024.97 1025.09 1025.01 1024.81 1023.97 1024.09 1024.01 1023.97 1023.97 1024.09 1024.17 1024.29
1016.13 1015.89 1015.73 1015.69 1015.69 1015.77 1015.93 1016.13 1016.65 1016.73 1016.69 1016.73 1016.65 1016.73 1016.73 1016.73 1016.89 1016.89 1016.89 1016.89 1016.93 1017.05 1017.29 1017.61 1018.45 1019.09 1020.09 1020.81 1021.13 1021.33 1021.21 1021.13 1021.09 1020.53 1020.29 1020.33 1020.45 1020.57 1020.89 1021.21 1022.01 1023.09 1023.57 1024.01 1024.45 1024.77 1024.97 1024.97 1024.65 1025.01 1025.25 1025.33 1025.33 1025.25 1024.61 1024.09 1024.21 1024.05 1024.21 1024.21 1024.33 1024.37 1024.29
Thickness
5629 5626 5626 5626 5626 5626 5625 5624 5625 5624 5623 5622 5622 5622 5622 5621 5621 5621 5621 5621 5621 5621 5620 5620 5619 5619 5620 5620 5620 5621 5621 5621 5620 5619 5619 5620 5619 5619 5622 5622 5621 5623 5621 5619 5617 5613 5603 5592 5589 5590 5591 5593 5594 5593 5593 5593 5593 5591 5589 5588 5587 5586 5584
5628 5627 5627 5626 5625 5625 5623 5622 5623 5623 5622 5621 5620 5620 5619 5619 5619 5619 5620 5618 5618 5618 5618 5618 5617 5616 5616 5615 5615 5616 5615 5616 5616 5616 5615 5615 5614 5614 5616 5616 5616 5617 5617 5616 5615 5614 5608 5594 5584 5583 5585 5587 5587 5587 5587 5588 5588 5587 5585 5584 5584 5583 5582
5627 5627 5626 5625 5623 5623 5622 5621 5620 5620 5620 5619 5618 5617 5617 5617 5617 5616 5617 5616 5615 5615 5615 5614 5614 5613 5612 5612 5611 5611 5611 5611 5612 5612 5611 5611 5611 5611 5612 5612 5611 5610 5611 5611 5610 5611 5609 5597 5583 5580 5582 5583 5581 5579 5580 5582 5582 5581 5580 5580 5579 5579 5578
5626 5625 5624 5623 5622 5621 5621 5619 5618 5618 5617 5617 5616 5616 5615 5615 5614 5613 5613 5612 5612 5611 5611 5612 5611 5610 5610 5609 5609 5609 5608 5607 5607 5608 5608 5608 5608 5608 5608 5608 5607 5606 5606 5607 5606 5607 5606 5593 5583 5579 5579 5580 5578 5574 5575 5576 5577 5577 5575 5574 5574 5573 5572
5626 5624 5623 5622 5622 5621 5620 5619 5618 5616 5616 5615 5614 5614 5613 5612 5611 5611 5610 5610 5609 5608 5607 5607 5607 5606 5606 5606 5606 5605 5604 5603 5604 5604 5603 5603 5603 5603 5603 5603 5604 5604 5604 5604 5604 5604 5598 5589 5585 5581 5576 5576 5575 5571 5570 5571 5572 5573 5572 5570 5569 5568 5567
5625 5625 5624 5622 5621 5621 5620 5617 5616 5616 5614 5613 5612 5611 5611 5609 5609 5609 5607 5606 5606 5604 5604 5603 5603 5602 5601 5602 5602 5600 5599 5599 5599 5599 5599 5598 5598 5599 5599 5600 5600 5601 5601 5601 5600 5600 5595 5587 5585 5579 5573 5574 5571 5567 5566 5567 5568 5569 5568 5567 5566 5565 5563
5625 5623 5623 5623 5621 5620 5619 5616 5615 5614 5612 5611 5610 5609 5608 5608 5606 5605 5604 5603 5602 5601 5600 5599 5599 5598 5597 5598 5598 5596 5594 5594 5595 5595 5595 5594 5594 5595 5595 5595 5596 5596 5597 5597 5596 5596 5593 5588 5582 5574 5570 5569 5565 5563 5562 5564 5566 5565 5563 5564 5563 5561 5559
5624 5623 5622 5621 5619 5618 5616 5615 5613 5612 5611 5609 5608 5606 5605 5604 5603 5602 5601 5600 5599 5598 5597 5596 5596 5596 5594 5594 5594 5592 5590 5590 5591 5592 5592 5591 5591 5591 5591 5591 5593 5592 5592 5592 5592 5591 5591 5589 5583 5574 5569 5564 5559 5558 5558 5561 5562 5559 5558 5559 5559 5557 5555
5622 5620 5620 5619 5617 5616 5614 5613 5611 5610 5609 5607 5606 5603 5602 5602 5600 5599 5599 5597 5596 5595 5594 5593 5593 5593 5591 5590 5590 5588 5587 5587 5588 5588 5589 5589 5588 5588 5589 5589 5589 5588 5587 5588 5588 5588 5587 5586 5583 5578 5570 5563 5559 5556 5554 5556 5556 5554 5554 5555 5555 5554 5553
5620 5618 5617 5616 5615 5614 5612 5611 5610 5608 5606 5605 5603 5601 5600 5599 5598 5596 5596 5594 5593 5593 5592 5591 5590 5588 5587 5586 5585 5584 5584 5585 5585 5584 5585 5586 5585 5586 5586 5585 5585 5583 5583 5584 5583 5584 5583 5579 5579 5577 5570 5563 5561 5560 5555 5553 5552 5551 5551 5551 5551 5551 5550
5618 5616 5615 5614 5613 5611 5609 5608 5607 5605 5604 5603 5601 5599 5597 5597 5595 5594 5593 5592 5591 5590 5589 5588 5587 5585 5584 5583 5582 5582 5581 5583 5583 5582 5582 5582 5582 5582 5582 5581 5581 5580 5580 5580 5580 5580 5580 5576 5573 5572 5569 5566 5565 5563 5558 5555 5551 5549 5550 5549 5549 5549 5546
5616 5614 5613 5612 5610 5608 5607 5605 5604 5603 5602 5601 5599 5597 5595 5595 5593 5591 5591 5590 5589 5588 5587 5585 5584 5583 5582 5581 5581 5580 5580 5580 5581 5580 5580 5579 5578 5578 5578 5577 5577 5577 5577 5578 5579 5578 5578 5576 5573 5571 5570 5570 5570 5566 5564 5560 5553 5549 5550 5549 5547 5547 5545
5614 5612 5611 5609 5607 5606 5605 5603 5602 5600 5599 5598 5597 5595 5593 5592 5591 5590 5589 5588 5587 5586 5584 5583 5582 5580 5580 5578 5579 5579 5578 5579 5579 5578 5577 5576 5576 5576 5576 5575 5575 5575 5576 5577 5578 5578 5577 5577 5575 5573 5572 5570 5569 5568 5567 5564 5556 5551 5550 5548 5547 5546 5544
5612 5611 5610 5608 5605 5604 5602 5601 5599 5598 5597 5596 5595 5593 5591 5590 5590 5588 5587 5586 5585 5584 5582 5581 5579 5578 5578 5576 5576 5576 5577 5577 5577 5577 5576 5574 5573 5573 5573 5574 5573 5574 5575 5575 5576 5577 5578 5577 5576 5574 5574 5572 5570 5569 5568 5565 5559 5553 5549 5549 5548 5546 5544
5611 5611 5609 5606 5604 5602 5599 5598 5598 5597 5595 5595 5593 5591 5589 5588 5587 5587 5585 5584 5583 5582 5581 5578 5577 5576 5576 5575 5574 5574 5574 5575 5574 5574 5573 5572 5571 5571 5571 5572 5572 5572 5573 5573 5574 5575 5576 5577 5577 5575 5574 5572 5571 5571 5570 5567 5563 5556 5550 5549 5548 5546 5544
5613 5610 5607 5604 5603 5602 5598 5597 5597 5596 5594 5593 5591 5589 5587 5585 5585 5585 5584 5583 5581 5580 5578 5576 5575 5574 5574 5573 5573 5573 5572 5572 5572 5571 5571 5571 5570 5570 5569 5570 5569 5570 5571 5571 5573 5574 5574 5575 5577 5576 5574 5573 5572 5571 5570 5568 5565 5560 5554 5551 5549 5548 5545
5613 5608 5605 5603 5602 5599 5597 5598 5597 5595 5593 5592 5591 5588 5586 5584 5583 5583 5582 5581 5579 5578 5576 5575 5573 5572 5572 5572 5572 5571 5570 5570 5570 5569 5569 5568 5568 5568 5568 5568 5568 5569 5570 5570 5571 5573 5573 5574 5576 5576 5574 5573 5572 5571 5570 5569 5567 5563 5559 5554 5552 5551 5548
5610 5606 5605 5603 5600 5598 5597 5597 5597 5594 5593 5591 5589 5587 5585 5583 5583 5581 5581 5580 5579 5577 5575 5574 5572 5571 5570 5570 5569 5569 5569 5568 5568 5567 5567 5566 5566 5567 5567 5567 5568 5568 5569 5570 5570 5571 5572 5573 5575 5575 5574 5573 5572 5570 5570 5569 5567 5564 5561 5557 5555 5553 5550
5609 5607 5605 5603 5600 5597 5597 5597 5595 5593 5592 5590 5589 5586 5584 5582 5582 5581 5581 5580 5579 5577 5575 5573 5572 5571 5570 5568 5567 5567 5567 5566 5566 5566 5565 5565 5565 5565 5566 5566 5566 5567 5568 5568 5569 5570 5570 5571 5573 5573 5572 5573 5572 5570 5569 5567 5566 5563 5560 5558 5555 5552 5550
5610 5608 5605 5602 5599 5597 5596 5596 5594 5593 5591 5590 5587 5585 5583 5582 5581 5581 5581 5580 5578 5576 5574 5572 5571 5570 5569 5568 5567 5566 5565 5565 5564 5564 5564 5564 5564 5564 5564 5565 5566 5566 5567 5567 5568 5568 5569 5569 5570 5570 5570 5570 5570 5568 5567 5566 5564 5562 5560 5558 5555 5552 5550
5611 5610 5606 5602 5598 5596 5596 5595 5594 5592 5590 5588 5586 5584 5583 5581 5580 5580 5580 5578 5576 5575 5572 5571 5570 5569 5568 5567 5566 5565 5565 5564 5563 5563 5562 5563 5563 5563 5564 5564 5564 5565 5564 5564 5564 5565 5566 5567 5568 5568 5567 5567 5567 5566 5565 5565 5563 5562 5560 5558 5556 5554 5552
5611 5609 5605 5601 5598 5597 5596 5595 5593 5591 5589 5587 5585 5584 5583 5581 5579 5579 5578 5577 5575 5573 5571 5570 5569 5567 5567 5566 5565 5565 5564 5564 5563 5562 5562 5561 5561 5563 5563 5562 5561 5560 5560 5559 5559 5560 5561 5562 5564 5566 5566 5565 5565 5564 5564 5563 5563 5562 5561 5558 5557 5555 5552
5611 5608 5604 5601 5600 5599 5598 5595 5592 5590 5588 5586 5585 5583 5582 5580 5579 5578 5577 5576 5574 5571 5570 5569 5566 5564 5564 5564 5564 5564 5563 5562 5562 5561 5561 5560 5560 5562 5562 5561 5558 5557 5557 5556 5556 5556 5557 5557 5559 5561 5561 5562 5562 5562 5563 5562 5562 5562 5560 5558 5557 5555 5553
5611 5608 5605 5602 5600 5599 5597 5595 5592 5589 5588 5587 5585 5583 5581 5579 5578 5578 5577 5575 5573 5571 5570 5567 5563 5561 5561 5561 5562 5563 5562 5561 5561 5560 5560 5560 5561 5561 5561 5560 5559 5558 5558 5557 5556 5555 5555 5555 5556 5556 5556 5556 5556 5557 5558 5559 5560 5560 5559 5558 5557 5555 5554
5611 5609 5606 5603 5600 5599 5597 5595 5591 5590 5589 5587 5585 5583 5582 5580 5579 5577 5577 5575 5572 5571 5569 5565 5561 5560 5559 5558 5560 5561 5561 5560 5560 5560 5560 5561 5561 5561 5561 5560 5560 5559 5558 5557 5556 5555 5554 5553 5553 5553 5553 5553 5552 5552 5553 5554 5555 5556 5557 5557 5555 5554 5554
5609 5609 5607 5604 5602 5600 5597 5595 5592 5591 5590 5588 5586 5584 5582 5581 5579 5577 5576 5574 5573 5571 5568 5563 5560 5559 5557 5557 5557 5559 5560 5560 5559 5559 5560 5560 5561 5561 5561 5560 5560 5559 5557 5557 5557 5557 5555 5553 5553 5552 5552 5551 5551 5549 5549 5549 5550 5551 5553 5555 5553 5553 5553
5607 5607 5607 5605 5603 5600 5598 5596 5594 5592 5590 5588 5586 5585 5583 5581 5579 5577 5576 5575 5573 5572 5568 5562 5559 5557 5556 5555 5556 5558 5559 5559 5558 5558 5557 5558 5559 5559 5560 5559 5559 5558 5557 5558 5558 5557 5556 5555 5554 5553 5553 5552 5551 5549 5549 5548 5548 5548 5549 5551 5552 5550 5549
5607 5606 5606 5605 5603 5601 5599 5598 5596 5594 5591 5589 5587 5586 5584 5582 5579 5577 5576 5575 5573 5573 5568 5562 5558 5556 5556 5555 5555 5556 5558 5558 5557 5557 5556 5556 5556 5557 5557 5558 5558 5557 5557 5557 5556 5555 5556 5556 5555 5554 5552 5552 5550 5549 5547 5545 5545 5546 5547 5548 5549 5548 5546
5608 5608 5607 5605 5602 5601 5600 5599 5597 5595 5593 5590 5588 5586 5584 5583 5580 5578 5577 5575 5574 5573 5569 5562 5558 5556 5555 5554 5554 5556 5557 5557 5556 5556 5555 5554 5555 5555 5556 5556 5557 5556 5556 5555 5553 5552 5554 5555 5555 5554 5552 5551 5549 5547 5544 5541 5542 5543 5543 5543 5543 5542 5541
5604 5604 5603 5602 5600 5600 5600 5599 5597 5596 5593 5591 5589 5587 5586 5584 5582 5580 5578 5576 5574 5573 5569 5563 5559 5557 5554 5552 5554 5557 5558 5558 5556 5556 5555 5554 5554 5554 5553 5554 5555 5555 5554 5552 5550 5550 5552 5553 5554 5553 5552 5550 5549 5547 5544 5541 5540 5540 5540 5540 5539 5538 5538
5602 5598 5596 5596 5597 5597 5597 5595 5593 5591 5589 5589 5589 5588 5586 5584 5582 5580 5579 5577 5575 5574 5571 5564 5560 5557 5554 5552 5554 5558 5559 5559 5557 5555 5554 5554 5554 5553 5551 5550 5551 5553 5553 5550 5547 5548 5549 5551 5553 5553 5551 5550 5550 5548 5546 5543 5542 5540 5538 5538 5537 5536 5536
5604 5597 5591 5593 5597 5596 5592 5587 5583 5581 5582 5584 5585 5587 5585 5584 5581 5579 5579 5577 5575 5574 5572 5566 5560 5557 5556 5552 5554 5558 5560 5559 5558 5556 5555 5554 5553 5553 5550 5547 5547 5548 5549 5547 5545 5545 5546 5548 5552 5552 5551 5551 5550 5548 5546 5545 5544 5543 5541 5540 5538 5537 5536
5601 5597 5592 5592 5594 5592 5586 5583 5580 5578 5579 5580 5582 5584 5583 5582 5580 5579 5578 5576 5574 5573 5573 5567 5561 5557 5556 5553 5553 5557 5560 5560 5558 5557 5556 5555 5554 5553 5550 5548 5545 5544 5544 5543 5542 5543 5544 5545 5548 5550 5551 5551 5549 5547 5546 5544 5543 5542 5542 5541 5540 5538 5537
5595 5594 5592 5591 5591 5588 5583 5582 5582 5580 5579 5579 5581 5582 5581 5580 5579 5578 5578 5577 5575 5573 5572 5569 5562 5557 5555 5554 5552 5554 5559 5560 5559 5558 5556 5556 5555 5554 5552 5551 5547 5542 5540 5541 5539 5540 5541 5541 5545 5547 5548 5547 5545 5544 5544 5543 5541 5540 5541 5540 5539 5539 5537
5589 5590 5590 5590 5588 5585 5581 5580 5579 5579 5580 5579 5579 5578 5578 5577 5577 5577 5578 5577 5575 5574 5572 5569 5564 5558 5554 5553 5551 5552 5555 5559 5559 5558 5557 5556 5556 5556 5554 5553 5549 5542 5539 5538 5537 5537 5538 5538 5540 5542 5541 5540 5539 5539 5541 5541 5541 5541 5542 5541 5541 5540 5539
5582 5584 5586 5586 5585 5583 5580 5576 5575 5577 5580 5579 5577 5577 5577 5576 5575 5576 5577 5576 5575 5574 5572 5570 5565 5560 5554 5552 5550 5549 5552 5554 5555 5556 5556 5556 5556 5556 5555 5553 5549 5543 5539 5537 5535 5534 5534 5535 5537 5537 5536 5536 5535 5535 5538 5540 5540 5540 5541 5540 5540 5539 5539
5575 5577 5579 5581 5581 5581 5579 5575 5572 5574 5575 5574 5573 5574 5574 5574 5574 5575 5575 5575 5574 5574 5573 5571 5566 5561 5556 5552 5550 5548 5548 5548 5550 5552 5554 5555 5555 5555 5554 5552 5547 5542 5538 5537 5534 5532 5532 5531 5532 5532 5531 5531 5532 5532 5535 5539 5539 5539 5539 5538 5537 5537 5536